| time (UTC) | temp C | wind direction | speed KPH | gust KPH | rain 1hr cm | rain 24hr cm | rain mn cm | humidity % | barometer mb |
| 20260904073031 | 10 | 202 | 1.6 | 3.2 | 0.00 | 0.00 | 0.00 | 92 | 1008.7 |
| 20260904071530 | 10 | 164 | 0.0 | 0.0 | 0.00 | 0.00 | 0.00 | 91 | 1008.7 |
| 20260904070033 | 10 | 136 | 0.0 | 3.2 | 0.00 | 0.00 | 0.00 | 91 | 1008.5 |
| 20260904061530 | 10 | 67 | 0.0 | 3.2 | 0.00 | 0.00 | 0.00 | 90 | 1008.5 |
| 20260904060108 | 10 | 67 | 1.6 | 3.2 | 0.00 | 0.00 | 0.00 | 89 | 1008.5 |
| 20260904054531 | 10 | 296 | 0.0 | 4.8 | 0.00 | 0.00 | 0.00 | 88 | 1008.5 |
| 20260904053105 | 11 | 273 | 0.0 | 4.8 | 0.00 | 0.00 | 0.00 | 88 | 1008.5 |
| 20260904051531 | 11 | 337 | 0.0 | 3.2 | 0.00 | 0.00 | 0.00 | 88 | 1008.5 |
| 20260904050107 | 11 | 337 | 0.0 | 0.0 | 0.00 | 0.00 | 0.00 | 88 | 1008.6 |
| 20260904044529 | 11 | 337 | 0.0 | 0.0 | 0.00 | 0.00 | 0.00 | 87 | 1008.6 |
| 20260904043105 | 11 | 337 | 0.0 | 1.6 | 0.00 | 0.03 | 0.00 | 86 | 1008.6 |
| 20260904041531 | 11 | 332 | 0.0 | 3.2 | 0.00 | 0.03 | 0.00 | 85 | 1008.6 |
| 20260904040029 | 11 | 315 | 0.0 | 4.8 | 0.00 | 0.03 | 0.00 | 85 | 1008.6 |
| 20260904033028 | 12 | 327 | 6.4 | 11.3 | 0.00 | 0.03 | 0.00 | 83 | 1008.4 |
| 20260904031530 | 12 | 329 | 4.8 | 9.7 | 0.00 | 0.03 | 0.00 | 82 | 1008.3 |
| 20260904030031 | 12 | 310 | 8.0 | 16.1 | 0.00 | 0.03 | 0.00 | 81 | 1008.2 |
| 20260904024530 | 13 | 309 | 6.4 | 14.5 | 0.00 | 0.03 | 0.00 | 80 | 1008.2 |
| 20260904023031 | 13 | 290 | 4.8 | 12.9 | 0.00 | 0.15 | 0.00 | 79 | 1008.0 |
| 20260904020029 | 13 | 315 | 4.8 | 14.5 | 0.00 | 0.48 | 0.00 | 78 | 1008.0 |
| 20260904014530 | 13 | 278 | 6.4 | 12.9 | 0.00 | 0.58 | 0.00 | 77 | 1008.0 |
| 20260904013032 | 14 | 270 | 3.2 | 9.7 | 0.00 | 0.58 | 0.00 | 75 | 1007.9 |
| 20260904011528 | 15 | 273 | 4.8 | 9.7 | 0.00 | 0.58 | 0.00 | 72 | 1007.8 |
| 20260904010033 | 16 | 285 | 4.8 | 11.3 | 0.00 | 0.61 | 0.00 | 70 | 1007.7 |
| 20260904004530 | 17 | 302 | 4.8 | 11.3 | 0.00 | 0.64 | 0.00 | 70 | 1007.6 |
| 20260904003033 | 17 | 335 | 4.8 | 17.7 | 0.00 | 0.66 | 0.00 | 71 | 1007.6 |
| 20260904001528 | 17 | 352 | 6.4 | 16.1 | 0.00 | 0.69 | 0.00 | 76 | 1007.9 |
| 20260904000031 | 14 | 359 | 8.0 | 12.9 | 0.00 | 0.71 | 0.00 | 78 | 1007.9 |
| 20260903234542 | 14 | 318 | 6.4 | 17.7 | 0.00 | 0.71 | 0.00 | 76 | 1008.1 |
| 20260903233107 | 15 | 329 | 8.0 | 19.3 | 0.00 | 0.71 | 0.00 | 74 | 1008.0 |
| 20260903231531 | 15 | 308 | 9.7 | 19.3 | 0.00 | 0.71 | 0.00 | 73 | 1008.0 |
| 20260903230033 | 15 | 286 | 8.0 | 20.9 | 0.00 | 0.71 | 0.00 | 71 | 1008.2 |
| 20260903224529 | 16 | 285 | 9.7 | 24.1 | 0.00 | 0.71 | 0.00 | 68 | 1008.1 |
| 20260903223029 | 17 | 305 | 9.7 | 20.9 | 0.00 | 0.71 | 0.00 | 68 | 1008.0 |
| 20260903220146 | 17 | 261 | 14.5 | 30.6 | 0.00 | 0.76 | 0.00 | 63 | 1007.6 |
| 20260903214531 | 18 | 274 | 8.0 | 30.6 | 0.00 | 0.79 | 0.00 | 60 | 1007.4 |
| 20260903211532 | 21 | 293 | 3.2 | 14.5 | 0.00 | 0.84 | 0.00 | 57 | 1007.5 |
| 20260903204531 | 20 | 318 | 4.8 | 11.3 | 0.00 | 0.89 | 0.00 | 64 | 1007.6 |
| 20260903203031 | 20 | 265 | 6.4 | 14.5 | 0.00 | 0.91 | 0.00 | 65 | 1007.7 |
| 20260903201530 | 20 | 294 | 4.8 | 14.5 | 0.00 | 0.94 | 0.00 | 71 | 1007.9 |
| 20260903200029 | 19 | 306 | 4.8 | 12.9 | 0.00 | 0.94 | 0.00 | 74 | 1008.1 |
| 20260903193032 | 18 | 285 | 3.2 | 9.7 | 0.00 | 0.97 | 0.00 | 83 | 1008.6 |
| 20260903191530 | 18 | 23 | 3.2 | 8.0 | 0.00 | 0.99 | 0.00 | 85 | 1008.7 |
| 20260903184531 | 17 | 312 | 3.2 | 9.7 | 0.00 | 0.99 | 0.00 | 89 | 1009.1 |
| 20260903183029 | 16 | 325 | 1.6 | 9.7 | 0.00 | 0.99 | 0.00 | 93 | 1009.1 |
| 20260903181606 | 14 | 332 | 1.6 | 6.4 | 0.00 | 0.99 | 0.00 | 93 | 1009.3 |
| 20260903173105 | 12 | 243 | 3.2 | 8.0 | 0.00 | 0.99 | 0.00 | 99 | 1009.4 |
| 20260903171531 | 11 | 109 | 1.6 | 6.4 | 0.00 | 0.99 | 0.00 | 99 | 1009.2 |
| 20260903170030 | 10 | 56 | 1.6 | 4.8 | 0.00 | 0.99 | 0.00 | 98 | 1009.5 |
| 20260903164530 | 10 | 200 | 1.6 | 6.4 | 0.00 | 0.99 | 0.00 | 98 | 1009.5 |
| 20260903163031 | 10 | 216 | 1.6 | 6.4 | 0.00 | 0.99 | 0.00 | 99 | 1009.3 |
| 20260903161531 | 10 | 26 | 3.2 | 6.4 | 0.00 | 0.99 | 0.00 | 99 | 1009.4 |
| 20260903160039 | 10 | 114 | 0.0 | 4.8 | 0.00 | 0.99 | 0.00 | 99 | 1009.5 |
| 20260903154531 | 10 | 218 | 6.4 | 14.5 | 0.00 | 0.99 | 0.00 | 99 | 1009.3 |
| 20260903153031 | 9 | 86 | 1.6 | 9.7 | 0.00 | 0.99 | 0.00 | 99 | 1009.3 |
| 20260903151529 | 9 | 8 | 0.0 | 6.4 | 0.00 | 0.99 | 0.00 | 99 | 1009.5 |
| 20260903144606 | 8 | 133 | 0.0 | 3.2 | 0.00 | 0.99 | 0.00 | 99 | 1009.1 |
| 20260903143031 | 8 | 244 | 0.0 | 6.4 | 0.00 | 0.99 | 0.00 | 98 | 1009.1 |
| 20260903141532 | 8 | 247 | 0.0 | 1.6 | 0.00 | 0.99 | 0.00 | 98 | 1009.0 |
| 20260903140032 | 8 | 246 | 0.0 | 4.8 | 0.00 | 0.99 | 0.00 | 98 | 1008.9 |
| 20260903134540 | 8 | 115 | 1.6 | 8.0 | 0.00 | 0.99 | 0.00 | 98 | 1008.8 |
| 20260903131530 | 7 | 105 | 1.6 | 6.4 | 0.00 | 0.99 | 0.00 | 98 | 1008.6 |
| 20260903124541 | 7 | 67 | 0.0 | 1.6 | 0.00 | 0.99 | 0.00 | 98 | 1008.5 |
| 20260903123032 | 7 | 175 | 1.6 | 6.4 | 0.00 | 0.99 | 0.00 | 98 | 1008.6 |
| 20260903121528 | 8 | 110 | 0.0 | 3.2 | 0.00 | 0.99 | 0.00 | 98 | 1008.6 |
| 20260903120030 | 8 | 101 | 1.6 | 6.4 | 0.00 | 0.99 | 0.00 | 98 | 1008.6 |
| 20260903114531 | 8 | 188 | 0.0 | 8.0 | 0.00 | 0.99 | 0.00 | 98 | 1008.6 |
| 20260903113031 | 8 | 101 | 1.6 | 4.8 | 0.00 | 0.99 | 0.00 | 98 | 1008.5 |
| 20260903111607 | 8 | 153 | 3.2 | 4.8 | 0.00 | 0.99 | 0.00 | 98 | 1008.5 |
| 20260903110031 | 8 | 65 | 1.6 | 4.8 | 0.00 | 0.99 | 0.00 | 97 | 1008.4 |
| 20260903104531 | 8 | 22 | 0.0 | 0.0 | 0.00 | 0.99 | 0.00 | 97 | 1008.3 |
| 20260903103028 | 9 | 22 | 0.0 | 6.4 | 0.00 | 0.99 | 0.00 | 97 | 1008.1 |
| 20260903101530 | 9 | 38 | 3.2 | 6.4 | 0.00 | 0.99 | 0.00 | 97 | 1008.1 |
| 20260903093030 | 10 | 133 | 0.0 | 3.2 | 0.00 | 0.99 | 0.00 | 98 | 1008.1 |
| 20260903090031 | 9 | 233 | 0.0 | 3.2 | 0.00 | 0.99 | 0.00 | 97 | 1008.1 |
| 20260903084528 | 10 | 241 | 1.6 | 8.0 | 0.00 | 0.99 | 0.00 | 97 | 1008.1 |
| 20260903083031 | 10 | 90 | 1.6 | 6.4 | 0.00 | 0.99 | 0.00 | 97 | 1008.0 |
| 20260903081530 | 10 | 129 | 1.6 | 4.8 | 0.00 | 0.99 | 0.00 | 97 | 1007.9 |
| 20260903080030 | 9 | 101 | 0.0 | 6.4 | 0.00 | 0.99 | 0.00 | 97 | 1008.0 |
| 20260903074529 | 9 | 130 | 3.2 | 6.4 | 0.00 | 0.99 | 0.00 | 97 | 1007.8 |